Regional Weather Roundup
Issued by NWS

Home | Current Version | Previous Version | Text Only | Print | Product List | Glossary Off
Versions: 1 2 3 4 5 6 7 8 9 10 11 12 13 14 15 16 17 18 19 20 21 22 23 24 25 26 27 28 29 30 31 32 33 34 35 36 37 38 39 40 41 42 43 44 45 46 47 48 49 50

000
ASUS45 KBOU 100107
RWRCO

WEATHER ROUNDUP FOR COLORADO
NATIONAL WEATHER SERVICE DENVER/BOULDER CO
600 PM MST TUE FEB 09 2016

NOTE: "FAIR" INDICATES FEW OR NO CLOUDS BELOW 12000 FEET WITH NO
SIGNIFICANT WEATHER AND/OR OBSTRUCTIONS TO VISIBILITY.

COZ001>005-013-030-031-100200-
...NORTHWEST COLORADO...

CITY           SKY/WX    TMP DP  RH WIND       PRES   REMARKS
CRAIG          CLOUDY    15  10  80 SW3       30.47F
HAYDEN         CLOUDY    27  16  63 N5        30.47S WCI  21
MEEKER         CLOUDY    22  15  75 CALM      30.45S
MOUNT WERNER   NOT AVBL
STEAMBOAT SPGS CLOUDY    24  17  74 CALM      30.47S
WALDEN         CLOUDY    19  12  73 SE5       30.45F WCI  13
$$

COZ006>008-011-100200-
...WEST CENTRAL VALLEYS...

CITY           SKY/WX    TMP DP  RH WIND       PRES   REMARKS
GRAND JUNCTION CLEAR     33  27  78 NE3       30.44F
MONTROSE       CLOUDY    38  24  57 E5        30.47R
EAGLE          CLEAR     32  23  69 CALM      30.49R
RIFLE          CLOUDY    31  21  66 S3        30.45R
DELTA          CLOUDY    41  26  56 CALM      30.46S
NUCLA          CLOUDY    45  25  45 CALM      30.46R
$$

COZ017>023-064>068-100200-
...SOUTHWEST COLORADO...

CITY           SKY/WX    TMP DP  RH WIND       PRES   REMARKS
DURANGO        CLOUDY    35  20  54 CALM      30.39R
CORTEZ         CLEAR     39  27  62 CALM      30.38R
PAGOSA SPRINGS CLOUDY    35  21  56 CALM      30.41R
TELLURIDE      CLOUDY    37  17  43 W5        30.50R
WOLF CREEK PAS CLOUDY    30  -4  22 N17       30.56S WCI  18
$$

COZ009-010-012-014-032>034-037-058>063-100200-
...CENTRAL COLORADO...

CITY           SKY/WX    TMP DP  RH WIND       PRES   REMARKS
ASPEN          CLOUDY    29  18  63 S7        30.47R WCI  22
BUENA VISTA    CLOUDY    44   6  21 NW17G23   30.38S
COPPER MTN     CLOUDY    28   3  34 W20       30.52S WCI  15
BERTHOUD PASS  FAIR      18   9  68 N13       30.51S WCI   4
COTTONWOOD PAS CLOUDY    41 -11  10 CALM      30.46R
GUNNISON       CLOUDY    10   5  79 CALM      30.53R
KREMMLING      CLOUDY    12   9  85 CALM      30.51S
LEADVILLE      CLOUDY    31   2  29 N8        30.46R WCI  23
MONARCH PASS   CLOUDY    30   3  31 W9        30.63R WCI  22
SALIDA         NOT AVBL
SUNLIGHT       CLOUDY    32  18  55 NW6       30.56R WCI  26
WILKERSON PASS CLOUDY    32   0  25 N10G17    30.50S WCI  24
$$

COZ069>075-100200-
...SAN LUIS VALLEY/SANGRE DE CRISTO MOUNTAINS...

CITY           SKY/WX    TMP DP  RH WIND       PRES   REMARKS
ALAMOSA        CLOUDY    37  20  50 NW3       30.40R
LA VETA PASS   CLOUDY    30  10  43 MISG      30.46S
SAGUACHE       CLOUDY    32  19  59 CALM      30.42S
$$

COZ035-036-038>040-100200-
...NORTHERN COLORADO FRONT RANGE...

CITY           SKY/WX    TMP DP  RH WIND       PRES   REMARKS
DENVER INTL AP CLEAR     41  22  46 S13       30.28S
DMNS CITY PARK   N/A     49  17  28 E8        30.28S
AURORA         NOT AVBL
FRONT RANGE AP PTCLDY    39  23  52 MISG      30.29F
ERIE MUNI ARPT CLEAR     42  25  52 SW6       30.28S
BOULDER MUN AP CLEAR     46  23  39 W6        30.28S
CENTENNIAL     CLEAR     41  22  46 S10       30.30S
BROOMFIELD     CLEAR     48  19  32 VRB3      30.30R
FORT COLLINS   CLEAR     43  25  49 S7        30.28S
LONGMONT       CLEAR     40  28  61 W5        30.31R
$$

COZ041-046-047-076>085-087-088-100200-
...PIKES PEAK/PALMER DIVIDE AND SOUTHERN FOOTHILLS...

CITY           SKY/WX    TMP DP  RH WIND       PRES   REMARKS
COLO. SPRINGS  CLEAR     40  21  46 E5        30.35S
A. F. ACADEMY  CLEAR     41  15  35 SE3       30.34S
SCHRIEVER AFB  FAIR      39  22  50 W5        30.35S
ELLICOTT       NOT AVBL
FALCON         NOT AVBL
FORT CARSON    NOT AVBL
LIMON          CLEAR     33  25  72 W8        30.30S WCI  26
MONUMENT HILL  CLEAR     32  18  55 S6        30.36S WCI  26
TRINIDAD       CLEAR     43  17  35 SE3       30.36R
$$

COZ042>045-048>051-090-091-100200-
...NORTHEAST COLORADO...

CITY           SKY/WX    TMP DP  RH WIND       PRES   REMARKS
GREELEY ARPT   CLEAR     39  27  60 CALM      30.26S
AKRON          CLEAR     40  30  67 W15       30.22F
BURLINGTON     CLEAR     37  28  70 W8        30.24S
WRAY           CLOUDY    37  32  81 W7        30.21S
STERLING       CLEAR     41  32  70 NW14      30.21S
HOLYOKE        CLOUDY    41  32  70 W13       30.19S
FORT MORGAN    CLEAR     42  28  56 W5        30.24F
$$

COZ086-089-092>099-100200-
...SOUTHEAST COLORADO...

CITY           SKY/WX    TMP DP  RH WIND       PRES   REMARKS
PUEBLO         CLEAR     46  24  42 E7        30.32R
LA JUNTA       PTCLDY    50  24  36 CALM      30.31S HAZE
LAMAR          CLEAR     45  24  43 NW5       30.28S
SPRINGFIELD      N/A     39  24  55 NW8       30.31R
$$



USA.gov is the U.S. government's official web portal to all federal, state and local government web resources and services.